Regional Weather Roundup
Issued by NWS State College, PA

Home | Current Version | Previous Version | Graphics & Text | Print | Product List | Glossary Off
Versions: 1 2 3 4 5 6 7 8 9 10 11 12 13 14 15 16 17 18 19 20 21 22 23 24 25 26 27 28 29 30 31 32 33 34 35 36 37 38 39 40 41 42 43 44 45 46 47 48 49 50

000
ASUS41 KCTP 240403
RWRCTP

REGIONAL WEATHER ROUNDUP
NATIONAL WEATHER SERVICE STATE COLLEGE PA
1100 PM EST SUN NOV 23 2014

Note: "fair" indicates few or no clouds below 12,000 feet with no
significant weather and/or obstructions to visibility.

* = STATION THAT DOES NOT REPORT PRECIPITATION /E.G. RAIN...SNOW...ETC/
    THUNDER OR FOG.

PAZ002>004-007>009-013>016-020>023-029>032-240500-
WESTERN PENNSYLVANIA

CITY           SKY/WX    TMP DP  RH WIND       PRES   REMARKS
ERIE           LGT RAIN  51  43  74 SE25G36   29.52F
MEADVILLE      LGT RAIN  48  43  82 E8G20     29.54F
FRANKLIN*      CLOUDY    46  43  87 SE16G23   29.60F
NEW CASTLE     LGT RAIN  51  49  93 E9G17     29.54F
BEAVER COUNTY  NOT AVBL
BUTLER*        CLOUDY    50  46  87 E13G20    29.58F
PITTSBURGH INT LGT RAIN  53  50  89 SE16      29.55F
PITTSBURGH     LGT RAIN  54  48  80 SE15G23   29.57F
INDIANA*       CLOUDY    50  46  87 S8G21     29.69F FOG
LATROBE        LGT RAIN  54  50  87 SE22G33   29.59F
WASHINGTON CO* CLOUDY    54  50  87 SE10      29.56F
$$

PAZ004>006-010>012-017>019-024>028-033>037-041-042-045-046-049>053-240500-
CENTRAL PENNSYLVANIA

CITY           SKY/WX    TMP DP  RH WIND       PRES   REMARKS
BRADFORD       LGT RAIN  46  38  73 SE15G26   29.71F
DUBOIS         LGT RAIN  47  44  90 SE15G23   29.68F FOG
CLEARFIELD     RAIN      47  45  93 VRB7      29.76F
JOHNSTOWN      RAIN      44  42  93 SE17G29   29.68F FOG
ALTOONA        RAIN      48  46  93 SE16G23   29.78F FOG
STATE COLLEGE  LGT RAIN  47  43  84 SE10G16   29.82F
WILLIAMSPORT   LGT RAIN  49  39  68 E13       29.87F
SELINSGROVE    LGT RAIN  51  43  74 VRB5      29.89F
FT INDIANTOWN  LGT RAIN  46  39  76 NE6       29.92F
CAPITAL CITY   LGT RAIN  47  42  83 SE6       29.90F
HARRISBURG     LGT RAIN  46  43  89 E9        29.89F
YORK           LGT RAIN  50  48  93 SE9       29.89F
$$

PAZ038>040-043-044-047-048-054-055-060>062-067>071-240500-
EASTERN PENNSYLVANIA

CITY           SKY/WX    TMP DP  RH WIND       PRES   REMARKS
SCRANTON       CLOUDY    52  40  63 S12       29.93F
MOUNT POCONO   CLOUDY    45  37  73 SE10      29.96F
ALLENTOWN      CLOUDY    50  37  61 E5        29.97F
QUAKERTOWN*    CLOUDY    50  46  87 SE10      29.97F
READING        CLOUDY    52  44  74 SE10      29.93F
LANCASTER      LGT RAIN  48  44  86 E5        29.92F
COATESVILLE    LGT RAIN  52  50  93 SE9       29.95F
POTTSTOWN      LGT RAIN  48  42  80 E3        29.97F
BLUE BELL      CLOUDY    52  46  82 CALM      29.96F
DOYLESTOWN     CLOUDY    48  44  86 CALM      29.97F
WILLOW GROVE   NOT AVBL
NORTH PHILA    CLOUDY    54  46  74 SE6       29.99F
PHILADELPHIA   CLOUDY    57  50  77 SE10      29.97F
$$


USA.gov is the U.S. government's official web portal to all federal, state and local government web resources and services.